www.pogodaiklimat.ru

Погода и климат >> Архив погоды >> Мадагаскар >> Sambava


ПОГОДА в Sambava

  • Прогноз погоды в Sambava
  • Монитор погоды в Sambava
  • Климат города

АРХИВ ПОГОДЫ в Sambava

Время (UTC), дата Ветер
(напр.,м/с)
 
Видим.   Явления Облачность Т
(С)
Тd
(С)
f
(%)
Тe
(С)
Тes
(С)
Комфортность P
(гПа)
Po
(гПа)
Тmin
(С)
Tmax
(С)
R
(мм)
R24
(мм)
S
(см)
09 11.08 Ю 7 25 км осадки на расстоянии 8/6 500 м
[Cu Sc Ac trans]
+27.0 +19.6 64 +33 +34 очень
душно
1024.3 1023.7
12 11.08 Ю 6 25 км осадки на расстоянии 6/6 500 м
[Cu Sc]
+27.5 +18.8 59 +33 +34 очень
душно
1022.2 1021.6
15 11.08 В 4 20 км осадки на расстоянии 1/1 500 м
[Cu Sc]
+23.7 +18.6 73 +28 +28 душно 1023.1 1022.5 +27.6
00 12.08 Ю 3 20 км осадки на расстоянии 8/8 500 м
[Cu Sc]
+22.9 +19.4 81 +29 +29 очень
душно
1022.4 1021.8
03 12.08 ЮЗ 4 15 км осадки на расстоянии 8/8 500 м
[Cu Sc]
+22.0 +19.2 84 +27 +27 душно 1022.2 1021.6
06 12.08 ЮЗ 4 20 км осадки на расстоянии 6/6 500 м
[Cu Sc]
+24.5 +19.4 73 +30 +32 очень
душно
1024.2 1023.6 +19.9 +27.6
09 12.08 Ю 6 20 км осадки на расстоянии 9/9 500 м
[Cu Sc]
+26.8 +19.4 64 +32 +33 очень
душно
1023.1 1022.5
12 12.08 Ю 7 25 км осадки на расстоянии 8/8 500 м
[Cu Sc]
+26.2 +17.6 59 +30 +31 душно 1021.3 1020.7
15 12.08 Ю 5 25 км осадки на расстоянии 5/5 500 м
[Cu Sc]
+23.5 +19.0 76 +28 +28 душно 1021.9 1021.3 +27.8
00 13.08 ЮЗ 3 10 км в посл. час дождь 10/10 500 м
[Cu Sc]
+20.5 +19.2 92 +25 +25 комфорт 1021.9 1021.3 11
03 13.08 ЮЗ 4 15 км в посл. час дождь 8/8 500 м
[Cu Sc]
+20.2 +19.0 93 +24 +24 комфорт 1022.4 1021.8 18
06 13.08 Ю 5 20 км в посл. час дождь 6/6 500 м
[Cu Sc]
+24.0 +20.2 79 +30 +32 очень
душно
1023.8 1023.2 +20.1 +27.8 22
09 13.08 Ю 6 25 км осадки на расстоянии {дождь} 6/6 500 м
[Cu Sc]
+24.6 +20.4 77 +30 +33 очень
душно
1022.9 1022.3 2
12 13.08 Ю 5 20 км в посл. час дождь 6/6 500 м
[Cu Sc]
+24.8 +20.4 77 +31 +32 очень
душно
1021.6 1021.0 3
15 13.08 Ю 6 6000 м осадки на расстоянии 8/8 500 м
[Cu Sc]
+24.0 +19.7 77 +29 +29 душно 1021.9 1021.3 +27.9
00 14.08 ЮЗ 4 25 км осадки на расстоянии {дождь} 8/8 500 м
[Cu Sc]
+19.4 +18.1 92 +22 +22 комфорт 1021.3 1020.7 13
03 14.08 ЮЗ 3 25 км осадки на расстоянии 6/6 500 м
[Cu Sc]
+19.6 +17.6 88 +22 +22 комфорт 1021.7 1021.1 16
06 14.08 Ю 5 20 км осадки на расстоянии {дождь} 9/9 500 м
[Cu Sc]
+22.5 +18.2 77 +28 +28 душно 1023.0 1022.4 +19.4 +27.9 16
09 14.08 Ю 6 25 км осадки на расстоянии {дождь} 6/6 500 м
[Cu Sc]
+24.6 +21.0 80 +31 +33 очень
душно
1022.2 1021.6 6
12 14.08 Ю 7 20 км осадки на расстоянии {дождь} 9/9 500 м
[Cu Sc]
+23.8 +20.5 82 +30 +30 очень
душно
1021.1 1020.5 7
15 14.08 Ю 5 8000 м в посл. час дождь 9/9 300 м
[Cu Sc]
+22.0 +20.8 93 +28 +28 душно 1021.8 1021.2 +26.0 9
00 15.08 ЮЗ 3 10 км в посл. час дождь 9/9 300 м
[Cu Sc]
+20.0 +19.1 95 +24 +24 комфорт 1022.1 1021.5 20
03 15.08 Ю 3 25 км в посл. час дождь 9/6 500 м
[Cu Sc]
+19.6 +19 +19 1022.3 1021.7 21
06 15.08 Ю 6 25 км осадки на расстоянии {дождь} 8/8 500 м
[Cu Sc]
+23.2 +19.5 80 +30 +31 очень
душно
1023.4 1022.8 +19.0 +26.0 35
09 15.08 Ю 6 25 км осадки на расстоянии 6/6 500 м
[Cu Sc]
+26.2 +20.5 71 +33 +35 очень
душно
1021.9 1021.3
12 15.08 Ю 8 20 км в посл. час дождь 6/6 500 м
[Cu Sc]
+23.6 +21.6 89 +30 +31 очень
душно
1020.8 1020.2 4
15 15.08 Ю 7 25 км осадки на расстоянии {дождь} 9/9 500 м
[Cu Sc]
+22.6 +18.8 79 +28 +28 душно 1021.4 1020.8 +27.0 0.4
00 16.08 ЮЗ 3 25 км осадки на расстоянии {дождь} 6/6 500 м
[Cu Sc]
+21.0 +18.1 84 +26 +26 душно 1021.4 1020.8 8
03 16.08 ЮЗ 3 40 км 4/4 600 м
[Cu Sc]
+19.6 +18.0 90 +22 +22 комфорт 1022.1 1021.5 13
06 16.08 Ю 7 20 км {дождь} 9/9 300 м
[Cu Sc]
+23.6 +20.2 81 +29 +29 душно 1023.4 1022.8 +19.5 +27.0 14
09 16.08 Ю 8 15 км осадки на расстоянии 9/9 500 м
[Cu Sc]
+25.8 +19.7 69 +31 +32 очень
душно
1021.7 1021.1
12 16.08 Ю 8 40 км 4/4 600 м
[Cu med, cong]
+25.0 +19.8 73 +31 +31 очень
душно
1019.9 1019.3
15 16.08 Ю 8 25 км осадки на расстоянии 6/6 500 м
[Cu med, cong]
+23.8 +18.8 74 +29 +29 душно 1020.5 1019.9 +26.6
00 17.08 ЮЗ 3 25 км осадки на расстоянии {дождь} 6/6 500 м
[Cu Sc]
+19.6 +18.2 92 +22 +22 комфорт 1020.4 1019.8 5
03 17.08 ЮЗ 3 40 км 9/9 600 м
[Cu Sc]
+19.6 +18.2 92 +22 +22 комфорт 1020.3 1019.7 5
06 17.08 Ю 6 40 км 1/1 600 м
[Cu Sc]
+24.6 +18.0 67 +29 +32 душно 1021.2 1020.6 +19.5 +26.6 5
09 17.08 Ю 8 25 км осадки на расстоянии 9/9 500 м
[Cu Sc]
+26.4 +19.4 65 +32 +32 очень
душно
1019.9 1019.3
12 17.08 Ю 8 25 км осадки на расстоянии 9/9 500 м
[Cu Sc]
+25.6 +21.4 78 +33 +33 очень
душно
1018.9 1018.3
15 17.08 ЮВ 6 25 км осадки на расстоянии 6/6 500 м
[Cu Sc]
+23.6 +19.3 77 +29 +29 душно 1019.7 1019.1 +27.0

 

Местоположение метеостанции Sambava (Мадагаскар): широта -14.28 долгота 50.17 высота над уровнем моря 5 м.

В архиве по умолчанию представлена погода в Sambava за последнюю неделю. Архивные данные за месяц целиком и за предыдущие месяцы, начиная с января 2011 года, Вы можете получить, выбрав интересующий диапазон дат из раскрывающегося списка и нажав кнопку "Ввод!".


*Определитесь, кто Вы:
робот инопланетянин человек

Внимание! Время в таблицах - всемирное. Для получения местного времени необходимо прибавить поправку, которая в Sambava равна 3 ч.

Смотрите также архив погоды в соседних городах и на ближайших метеорологических станциях:

Погода в Antalaha (Мадагаскар) (67 км)
Погода в Fascene (Мадагаскар) (227 км)
Погода в Antsiranana (Мадагаскар) (234 км)
Погода в Antsohihy (Мадагаскар) (245 км)
Погода в Nosy Boraha (Мадагаскар) (314 км)
Погода в Ambohitsilaozana (Мадагаскар) (413 км)
Погода в Toamasina (Мадагаскар) (434 км)
Погода в Mahajanga (Мадагаскар) (438 км)
Погода в Glorieuses Island (Реюньон) (446 км)
Погода в Serge-Frolow (Реюньон) (495 км)

Пояснения к столбцам:

Ветер - указаны скорость ветра в м/с - средняя за 10 мин, порывы в срок и между сроками (в фигурных скобках) и направление, откуда дует ветер: С - северный, СВ - северо-восточный, В - восточный, ЮВ - юго-восточный, Ю - южный, ЮЗ - юго-западный, З - западный, СЗ - северо-западный.
Видимость - горизонтальная дальность видимости в метрах или километрах. При видимости от 1 до 10 км при отсутствии осадков обычно наблюдается дымка, при ухудшении видимости до 1 км и менее - туман. В сухую погоду видимость может ухудшаться дымом, пылью или мглою.
Явления - указаны атмосферные явления, наблюдавшиеся в срок или в последний час перед сроком; фигурными скобками обозначены явления, наблюдавшиеся между сроками (за 1-3 часа до срока); квадратными скобками обозначены град или гололедные отложения с указанием их диаметра в мм.
Облачность - указаны через наклонную черту общая и нижняя облачность в баллах и высота нижней границы облаков в метрах; квадратными скобками обозначены формы облаков: Ci - перистые, Cs - перисто-слоистые, Cc - перисто-кучевые, Ac - высококучевые, As - высокослоистые, Sc - слоисто-кучевые, Ns - слоисто-дождевые, Cu - кучевые, Cb - кучево-дождевые. Подробнее классификацию облаков см. в Атласе облаков (PDF).
T - Температура воздуха - температура, измеренная на высоте 2 м над землей.
Td - Температура точки росы - температура, при понижении до которой содержащийся в воздухе водяной пар достигнет насыщения.
f - Относительная влажность воздуха - влажноcть воздуха, измеренная на высоте 2 м над землей.
Te - Эффективная температура - температура, которую ощущает одетый по сезону человек в тени. Характеристика душности погоды. При расчете учитывается влияние влажности воздуха и скорости ветра на теплоощущения человека.
Tes - Эффективная температура на солнце - температура, которую ощущает человек, с поправкой на солнечный нагрев. Характеристика знойности погоды. Зависит от высоты солнца над горизонтом, облачности и скорости ветра. Ночью, в пасмурную погоду, а также при ветре 12 м/с и более поправка равна нулю.
P - Атмосферное давление - приведенное к уровню моря атмосферное давление.
Po - Атмосферное давление - измеренное на уровне метеостанции атмосферное давление.
Tmin - Минимальная температура - минимум температуры воздуха на высоте 2 м над землей.
Tmax - Максимальная температура - максимум температуры воздуха на высоте 2 м над землей.
R - Количество осадков - Количество выпавших осадков за период времени, мм. При наведении курсора мыши на число - период времени, за который выпало указанное количество осадков.
R24 - Количество осадков - Количество выпавших осадков за 24 часа, мм.
S - Снежный покров - Высота снежного покрова, см. При наведении курсора мыши на число - состояние снежного покрова и степень покрытия местности в баллах.